CZ-6A DEB

Satellite information

Favourite Embed

Satellite Type and Status

DEBRISIN ORBIT

Key statistics

Satellite CZ-6A DEB at a glance.

Uptime

910

Days in orbit

Revolutions

≈ 14.6

Per day

Orbit

SSO

Sun Synchronous Orbit

Inclination

98.7

Latest

Satellite identification and parameters

Extended collection of information and parameters for CZ-6A DEB.

Object identification

Identified? True

Debris? True

Object name: CZ-6A DEB

International designator: 2022-151HJ

Object number (NORAD): 54482

Object ID (CCSDS): 54482

Country: PEOPLES REPUBLIC OF CHINA (PRC)

Current information (Y/N): Y

RCS size: SMALL

Orbital parameters

Period: 98.432 minutes

Inclination: 98.6516 deg

SMA: 7061.823 km

Apoapsis: 744.851 km

Periapsis: 622.526 km

RAAN: 169.4383 deg

Eccentricy: 0.008661

Argument of periapsis: 100.553 deg

Mean anomaly: 260.5441 deg

Mean motion: 14.62943251 rev/day

Mean motion (dot): 0.00016498 rev/day2

B* drag term: 0.0030566 1/REarth

Two-line elements (TLE)

Creation date: May 8, 2025, 3:01 a.m.

Reference frame: TEME

Reference center: EARTH

Epoch: May 7, 2025, 2:41 a.m. UTC

TLE line 0: 0 CZ-6A DEB

TLE line 1: 1 54482U 22151HJ 25127.11199682 .00016498 00000-0 30566-2 0 9998

TLE line 2: 2 54482 98.6516 169.4383 0086610 100.5530 260.5441 14.62943251130811

Live tracking on map

Real-time ground track for satellite CZ-6A DEB.

In-orbit conjunctions

A list of the most updated potential collisions computed for object CZ-6A DEB.

Target Orbit TCA Probability of collision Miss distance Type
CZ-6A DEB LEO 2025-04-21 05:13:57 0.0002845696 50.0 (m) DEBRIS
CZ-6A DEB LEO 2024-12-16 06:40:17 0.0004775242 85.0 (m) DEBRIS

Associated space launch

Chinese satellite reported for atmospheric/ocean/environmental/spatial parameter research purposes, details TBD.

CZ-6A DEB was lifted into orbit during the mission ‘Long March 6A | Yunhai 3’, on board a Long March 6A space rocket.

The launch took place on Nov. 11, 2022, 10:52 p.m. from Launch Complex 9A.

For more information about the launch, click the button.

Launch to space Long March 6A | Yunhai 3
Long March 6A | Yunhai 3

Agency: N/A

Status: Launch Successful

Launch date: Nov. 11, 2022, 10:52 p.m. UTC

Rocket: Long March 6A

Launch pad: Launch Complex 9A

Location: Taiyuan Satellite Launch Center, People's Republic of China

...

Latest news about this satellite

There are no fresh news available about this satellite. Check back as we update our databases every day.


Newsletter sign-up

Weekly statistics, charts and insights to help you stay on top of the space industry.